780  
ASUS41 KBTV 180110  
RWRBTV  
VERMONT REGIONAL WEATHER ROUNDUP  
NATIONAL WEATHER SERVICE BURLINGTON VT  
800 PM EST SUN DEC 17 2017  
 
NOTE: "FAIR" INDICATES FEW OR NO CLOUDS BELOW 12,000 FEET WITH NO  
SIGNIFICANT WEATHER AND/OR S TO VISIBILITY
.  
 
* THESE REPORTS ARE NOT UNDER NWS QUALITY CONTROL AND/OR DO NOT  
REPORT WEATHER SUCH AS PRECIPITATION AND FOG.
 
 
VTZ001>019-180200-  
_____VERMONT_____  
 
 
CITY SKY/WX TMP DP RH WIND PRES REMARKS
 
BURLINGTON CLOUDY 8 1 73 CALM 30.27F  
MONTPELIER CLOUDY 3 0 87 CALM 30.25R  
MORRISVILLE CLOUDY -4 -7 87 CALM 30.26F  
ST. JOHNSBURY* N/A 2 0 91 MISG 30.26S  
LYNDONVILLE* FAIR 2 -1 85 N3 30.23F  
MIDDLEBURY* FAIR 7 3 84 CALM 30.27R  
RUTLAND* CLOUDY 8 4 83 CALM 30.25R  
SPRINGFIELD CLOUDY 11 4 73 CALM 30.26R  
HIGHGATE* FAIR -1 -4 87 CALM 30.29F  
NEWPORT* FAIR -1 -4 87 SW5 30.24F WCI -11  
BENNINGTON PTCLDY 17 9 70 CALM 30.23S  
SUTTON* N/A 1 N/A N/A MISG N/A  
 
_____LAKE CHAMPLAIN_____  
 
 
CITY SKY/WX TMP DP RH WIND PRES REMARKS
 
BURTON ISLAND* N/A 12 7 79 NE1 N/A  
COLCHESTER RF* N/A 16 7 67 E7 N/A WCI 6  
 

 
 
NYZ007-026>031-035-052-083-087-180200-  
_____NORTHERN NEW YORK_____  
 
 
CITY SKY/WX TMP DP RH WIND PRES REMARKS
 
PLATTSBURGH CLOUDY 9 3 77 W5 30.29F WCI 1  
SARANAC LAKE CLOUDY 1 -3 83 CALM 30.12S  
MASSENA CLOUDY -2 -4 91 CALM 30.29F  
OGDENSBURG* FAIR 2 0 88 E3 30.26S  
POTSDAM* MOCLDY 1 -2 85 CALM 30.24F  
WATERTOWN PTCLDY 10 3 73 E5 30.23F WCI 2  
FT DRUM CLOUDY 9 1 70 E3 30.19F  
ALBANY CLOUDY 22 10 60 N5 30.28S WCI 16  
GLENS FALLS CLOUDY 10 6 84 E3 30.28R  
 

 
NHZ002-005-011-180200-  
_____NEW HAMPSHIRE_____  
 
 
CITY SKY/WX TMP DP RH WIND PRES REMARKS
 
LEBANON PTCLDY 10 6 84 CALM 30.26R  
KEENE CLOUDY 14 8 77 S3 30.27R  
MT WASHINGTON PTCLDY 7 -13 40 NW36 N/A WCI -18  
PLYMOUTH FAIR 14 3 62 NW3 30.24S  
WHITEFIELD CLOUDY -2 -7 79 CALM 30.23S  
 

 
 
_____REGIONAL QUEBEC LOCATIONS_____  
 
 
CITY SKY/WX TMP DP RH WIND PRES REMARKS
 
MONTREAL FLURRIES 9 5 85 SE7 30.30F WCI -3  
QUEBEC CITY CLEAR -2 -9 71 SW8 30.29S WCI -17  
SHERBROOKE CLEAR -6 -9 84 E5 30.24F WCI -17  
 
_____REGIONAL ONTARIO LOCATIONS_____  
 
 
CITY SKY/WX TMP DP RH WIND PRES REMARKS
 
OTTAWA MOCLDY 1 -4 78 CALM 30.26F  
 
______KEY______  
VSB - VISIBILITY IN MILES  
WCI - WIND CHILL INDEX  
HX - HEAT INDEX  

 
NNNN  
 
 
CLICK HERE TO GO TO PREVIOUS BULLETINS.

The Nexlab VT Page
The Nexlab NY Page Main Text Page